Regional Weather Roundup
Issued by NWS

Home | Current Version | Previous Version | Text Only | Print | Product List | Glossary Off
Versions: 1 2 3 4 5 6 7 8 9 10 11 12 13 14 15 16 17 18 19 20 21 22 23 24 25 26 27 28 29 30 31 32 33 34 35 36 37 38 39 40 41 42 43 44 45 46 47 48 49 50

000
ASUS43 KMKX 012100
RWRWI

WISCONSIN REGIONAL WEATHER ROUNDUP
NATIONAL WEATHER SERVICE MILWAUKEE/SULLIVAN WI
400 PM CDT SUN MAY 01 2016

NOTE: "FAIR" INDICATES FEW OR NO CLOUDS BELOW 12,000 FEET WITH NO
SIGNIFICANT WEATHER AND/OR OBSTRUCTIONS TO VISIBILITY.

WIZ001-002-006>008-014>016-023>028-012200-
NORTHWEST WISCONSIN

CITY           SKY/WX    TMP DP  RH WIND       PRES   REMARKS
SUPERIOR ARPT  SUNNY     47  37  66 E10       30.21S
ASHLAND        SUNNY     51  38  60 N15       30.19F
HAYWARD        SUNNY     58  34  40 NE16G24   30.12F
SIREN          SUNNY     62  29  28 NE13G20   30.11F
CUMBERLAND     MOSUNNY   59  34  38 N6        30.10F
RICE LAKE      PTSUNNY   62  31  32 N8        30.10F
CHETEK         MOSUNNY   62  35  35 NE6       30.08F
LADYSMITH      PTSUNNY   64  31  29 NE10      30.08F
EAU CLAIRE     MOSUNNY   64  30  27 E10G20    30.06S
MENOMONIE      MOSUNNY   65  33  29 NE14      30.07F
NEW RICHMOND   MOSUNNY   61  32  33 E9G17     30.10F
OSCEOLA        MOSUNNY   62  33  34 E9G17     30.13S
$$

WIZ003>005-009-010-017-018-012200-
NORTH CENTRAL WISCONSIN

CITY           SKY/WX    TMP DP  RH WIND       PRES   REMARKS
MANITOWISH WTR MOSUNNY   59  32  36 NE12      30.10F
ARBOR VITAE    CLOUDY    61  30  30 E8        30.09S
WOODRUFF       CLOUDY    61  30  30 E8        30.09S
RHINELANDER    CLOUDY    59  26  28 NE8       30.08S
EAGLE RIVER    MOSUNNY   60  24  25 E13       30.08F
LAND O LAKES   PTSUNNY   57  31  36 N6        30.10F
PHILLIPS       PTSUNNY   59  31  35 NE12G20   30.08S
TOMAHAWK       PTSUNNY   60  27  29 NE7       30.07S
MEDFORD        CLOUDY    58  32  36 E7        30.05F
MERRILL        CLOUDY    61  30  31 E9        30.06S
$$

WIZ029-030-035-036-043>047-012200-
CENTRAL WISCONSIN

CITY           SKY/WX    TMP DP  RH WIND       PRES   REMARKS
WAUSAU         CLOUDY    63  31  30 E14G20    30.03F
MOSINEE        PTSUNNY   57  30  35 E9        30.06F
MARSHFIELD     CLOUDY    59  31  34 E10       30.05F
STEVENS POINT  MOSUNNY   57  32  39 E9G18     30.06F
WAUPACA        SUNNY     61  35  37 NE13G21   30.06F
WAUTOMA        MOSUNNY   59  33  37 NE14G25   30.05F
WISC RAPIDS    MOSUNNY   60  28  29 E16       30.06F
CAMP DOUGLAS   NOT AVBL
$$

WIZ011>013-019>022-031-037>040-048>050-012200-
NORTHEAST WISCONSIN

CITY           SKY/WX    TMP DP  RH WIND       PRES   REMARKS
ANTIGO         CLOUDY    58  32  38 E12G17    30.07S
SHAWANO        SUNNY     61  36  39 E13       30.09S
OCONTO         SUNNY     55  36  47 E12G18    30.10F
STURGEON BAY   SUNNY     54  37  54 NE14      30.12F
GREEN BAY      SUNNY     57  40  52 NE21      30.08F
MANITOWOC      NOT AVBL
APPLETON       PTSUNNY   55  34  44 NE20G28   30.05F
CLINTONVILLE   SUNNY     59  34  38 E14       30.08S
OSHKOSH        SUNNY     57  40  52 NE17G25   30.04F
$$

WIZ032>034-041-042-053>061-012200-
SOUTHWEST WISCONSIN

CITY           SKY/WX    TMP DP  RH WIND       PRES   REMARKS
LA CROSSE      CLOUDY    56  39  53 SE5       30.05F
SPARTA         CLOUDY    57  39  50 E12G17    30.06S
VIROQUA        CLOUDY    52  42  69 E10       30.05S
BOSCOBEL       CLOUDY    53  43  68 VRB5      30.04F
PRAIRIE DU CHI CLOUDY    51  41  69 CALM      30.05R
PLATTEVILLE    CLOUDY    51  46  82 NE10      30.02S
$$

WIZ056-057-062-063-064-067-068-012200-
SOUTH CENTRAL WISCONSIN

CITY           SKY/WX    TMP DP  RH WIND       PRES   REMARKS
REEDSBURG      CLOUDY    55  39  54 NE10G16   30.03F
BARABOO/DELLS  CLOUDY    55  37  50 E16G23    30.03S
LONE ROCK      NOT AVBL
MINERAL POINT  CLOUDY    54  45  71 NE9G16    30.02S
MADISON        PTSUNNY   56  40  55 NE16G23   30.02R
MIDDLETON      CLOUDY    56  45  65 NE12      30.03R
WATERTOWN      CLOUDY    55  42  60 NE14      30.02R
MONROE         CLOUDY    52  43  71 NE9       30.00F
JANESVILLE     CLOUDY    57  43  58 NE12      30.01R
$$

WIZ051-052-058>065-066-070>072-012200-
SOUTHEAST WISCONSIN

CITY           SKY/WX    TMP DP  RH WIND       PRES   REMARKS
MILWAUKEE      CLOUDY    45  39  79 NE14      30.05R
WAUKESHA       MOSUNNY   52  41  66 NE12G23   30.04R
MILWAUKEE/TIMM CLOUDY    52  37  58 NE14G22   30.04S
RACINE         LGT RAIN  44  39  82 N14       30.05R
BURLINGTON     CLOUDY    46  42  83 E9        30.04R
KENOSHA        CLOUDY    47  42  83 N12       30.03S
FOND DU LAC    MOSUNNY   58  40  51 NE17G31   30.04S
SHEBOYGAN      CLOUDY    51  39  63 NE18      30.05S
WEST BEND      CLOUDY    52  39  62 NE17G26   30.03S
JUNEAU         MOSUNNY   56  40  54 NE13G29   30.03R
$$

LSZ147-162-012200-
LAKE SUPERIOR

STATION/POSITION TIME  TEMP    WIND        PRES    WAVE
                       AIR SEA DIR/SP/G            HT/PER
                 (UTC) (F)     (DEG/KT/KT) (MB)    (FT/S)
W MID LAKE BUOY  1950   38 37   40/  6/  6 1023.8F   3/ 5
DEVILS ISLAND    2000   39      50/  8/  9 1024.0F
SAXON HARBOR     2000   40      20/  8/ 10 1022.4F
$$

LMZ867-665-643>646-012200-
LAKE MICHIGAN

STATION/POSITION TIME  TEMP    WIND        PRES    WAVE
                       AIR SEA DIR/SP/G            HT/PER
                 (UTC) (F)     (DEG/KT/KT) (MB)    (FT/S)
CHAMBERS ISLAND  2000   46      20/  8/ 11 1020.3S
N MID LAKE BUOY  1950   41 39   10/  8/  8 1020.1F   1
NORTHPORT PIER   2000   45      80/  5/  8 1020.0F
KEWAUNEE LAKESHO 2000   47      30/ 13/ 18 1018.1F
SHEBOYGAN LAKESH 2000   44      20/ 20/ 22 1018.3F
PORT WASHINGTON  2040   48      30/ 13/ 17 1018.3S
S MID LAKE BUOY  1950   42 40   20/ 10/ 12 1016.3R   2/ 6
KENOSHA   LAKESH 2000   44      20/ 16/ 19 1016.9R
$$

TC  - TEMPERATURE IN CELSIUS
VSB - VISIBILITY IN STATUTE MILES
WCI - WIND CHILL INDEX
HX  - HEAT INDEX




USA.gov is the U.S. government's official web portal to all federal, state and local government web resources and services.